Regional Weather Roundup
Issued by NWS

Home | Current Version | Previous Version | Text Only | Print | Product List | Glossary On
Versions: 1 2 3 4 5 6 7 8 9 10 11 12 13 14 15 16 17 18 19 20 21 22 23 24 25 26 27 28 29 30 31 32 33 34 35 36 37 38 39 40 41 42 43 44 45 46 47 48 49 50
000
ASUS43 KMKX 190900
RWRWI

WISCONSIN REGIONAL WEATHER ROUNDUP
NATIONAL WEATHER SERVICE MILWAUKEE/SULLIVAN WI
400 AM CDT SAT APR 19 2014

NOTE: "FAIR" INDICATES FEW OR NO CLOUDS BELOW 12,000 FEET WITH NO
SIGNIFICANT WEATHER AND/OR OBSTRUCTIONS TO VISIBILITY.

WIZ001-002-006>008-014>016-023>028-191000-
NORTHWEST WISCONSIN

CITY           SKY/WX    TMP DP  RH WIND       PRES   REMARKS
SUPERIOR ARPT  CLOUDY    32  29  88 NE13      30.26F WCI  22
ASHLAND        CLOUDY    30  26  85 E3        30.32F
HAYWARD        MOCLDY    38  23  55 SE12G18   30.27S WCI  30
SIREN          CLOUDY    41  26  53 SE15G22   30.21S
RICE LAKE      PTCLDY    39  28  66 SE18G24   30.26F WCI  29
LADYSMITH      MOCLDY    38  28  66 SE13      30.32F WCI  30
EAU CLAIRE     PTCLDY    39  27  62 SE14G22   30.28S WCI  31
MENOMONIE      MOSUNNY   39  29  66 E12G18    30.26S WCI  32
NEW RICHMOND   PTCLDY    40  27  61 SE13G25   30.19S WCI  32
OSCEOLA        PTCLDY    42  28  58 SE18G28   30.21R
$$

WIZ003>005-009-010-017-018-191000-
NORTH CENTRAL WISCONSIN

CITY           SKY/WX    TMP DP  RH WIND       PRES   REMARKS
WOODRUFF       CLOUDY    33  25  72 SE9       30.34S WCI  25
RHINELANDER    CLOUDY    31  23  72 SE10      30.36S WCI  22
EAGLE RIVER    CLOUDY    31  24  75 SE6       30.36S WCI  25
LAND O LAKES   CLOUDY    31  25  80 SE6       30.36F WCI  25
PHILLIPS       MOCLDY    33  24  69 SE8       30.33S WCI  27
TOMAHAWK       CLOUDY    32  24  72 SE8       30.36S WCI  25
MEDFORD        CLOUDY    33  26  73 SE12G18   30.34S WCI  25
MERRILL        CLOUDY    33  26  73 CALM      30.38S
$$

WIZ029-030-035-036-043>047-191000-
CENTRAL WISCONSIN

CITY           SKY/WX    TMP DP  RH WIND       PRES   REMARKS
WAUSAU         MOCLDY    33  25  72 SE12      30.37S WCI  24
MOSINEE        MOCLDY    32  28  86 E8        30.40R WCI  25
MARSHFIELD     CLOUDY    34  26  72 SE14      30.36S WCI  25
STEVENS POINT  MOCLDY    31  24  76 E8        30.40R WCI  24
WAUPACA        MOCLDY    34  27  75 E7        30.42S WCI  28
WAUTOMA        NOT AVBL
WISC RAPIDS    CLOUDY    34  25  69 E10       30.39S WCI  26
CAMP DOUGLAS   NOT AVBL
$$

WIZ011>013-019>022-031-037>040-048>050-191000-
NORTHEAST WISCONSIN

CITY           SKY/WX    TMP DP  RH WIND       PRES   REMARKS
ANTIGO         CLOUDY    30  25  82 SE10      30.40R WCI  21
STURGEON BAY   MOCLDY    30  27  86 E5        30.45R WCI  25
GREEN BAY      MOCLDY    33  28  81 E6        30.44R WCI  28
MANITOWOC      NOT AVBL
APPLETON       MOCLDY    32  27  80 E7        30.42R WCI  26
CLINTONVILLE   MOCLDY    32  28  86 E3        30.43R
OSHKOSH        PTCLDY    34  26  72 E9        30.41R WCI  27
$$

WIZ032>034-041-042-053>061-191000-
SOUTHWEST WISCONSIN

CITY           SKY/WX    TMP DP  RH WIND       PRES   REMARKS
LA CROSSE      PTCLDY    41  30  65 SE12      30.31R
SPARTA         MOCLDY    37  28  70 SE10      30.35R WCI  29
VIROQUA        FAIR      36  30  80 E12       30.31S WCI  27
BOSCOBEL       PTCLDY    38  26  62 E7        30.35S WCI  33
PRAIRIE DU CHI PTCLDY    38  30  72 E8G18     30.32F WCI  33
PLATTEVILLE    FAIR      34  28  80 E9        30.34S WCI  26
$$

WIZ056-057-062-063-064-067-068-191000-
SOUTH CENTRAL WISCONSIN

CITY           SKY/WX    TMP DP  RH WIND       PRES   REMARKS
BARABOO/DELLS  PTCLDY    34  24  68 E5        30.37R WCI  30
LONE ROCK      NOT AVBL
WATERTOWN      CLEAR     34  26  71 E9        30.36S WCI  27
MADISON        CLEAR     34  24  67 E3        30.38S
MIDDLETON      FAIR      36  26  65 E9        30.36S WCI  29
MONROE         CLEAR     34  25  70 E9        30.33S WCI  26
JANESVILLE     CLEAR     36  27  69 E7        30.35S WCI  30
$$

WIZ051-052-058>065-066-070>072-191000-
SOUTHEAST WISCONSIN

CITY           SKY/WX    TMP DP  RH WIND       PRES   REMARKS
MILWAUKEE      PTCLDY    34  28  79 E8        30.41R WCI  27
WAUKESHA       CLEAR     32  27  80 E7        30.40R WCI  26
MILWAUKEE/TIMM CLEAR     32  28  86 NE5       30.41S WCI  27
RACINE         CLEAR     34  28  79 NE8       30.41R WCI  27
BURLINGTON     CLEAR     31  26  83 E7        30.38S WCI  24
KENOSHA        CLEAR     33  27  78 NE9       30.38S WCI  25
FOND DU LAC    PTCLDY    34  25  69 E10       30.40S WCI  26
SHEBOYGAN      PTCLDY    33  27  78 E7        30.43R WCI  27
WEST BEND      PTCLDY    32  27  80 E6        30.40S WCI  26
JUNEAU         CLEAR     33  24  68 E12       30.39S WCI  25
$$

LSZ147-162-191000-
LAKE SUPERIOR

STATION/POSITION TIME  TEMP    WIND        PRES    WAVE
                       AIR SEA DIR/SP/G            HT/PER
                 (UTC) (F)     (DEG/KT/KT) (MB)    (FT/S)
DEVILS ISLAND    0800   33     100/ 12/ 13 1028.6F
PORT WING        0800   35     100/  4/  9 1025.7F
SAXON HARBOR     0800           CALM  /  6 1026.8F
$$

LMZ867-665-643>646-191000-
LAKE MICHIGAN

STATION/POSITION TIME  TEMP    WIND        PRES    WAVE
                       AIR SEA DIR/SP/G            HT/PER
                 (UTC) (F)     (DEG/KT/KT) (MB)    (FT/S)
NORTHPORT PIER   0800   30      90/  2/  4 1031.2R
SISTER BAY       0823   28        CALM       N/A
KEWAUNEE LAKESHO 0800   34      80/  8/ 11 1031.0F
SHEBOYGAN LAKESH 0800   36      80/ 13/ 14 1030.9F
PORT WASHINGTON  0800   36      40/  6/  8 1030.5R
MILWAUKEE LAKESH 0800   36      40/ 10/ 11   N/A
KENOSHA   LAKESH 0800   37      60/ 11/ 14   N/A
$$

TC  - TEMPERATURE IN CELSIUS
VSB - VISIBILITY IN STATUTE MILES
WCI - WIND CHILL INDEX
HX  - HEAT INDEX




USA.gov is the U.S. government's official web portal to all federal, state and local government web resources and services.